When you browse on this site, cookies collect data to enhance your experience and personalize the content and advertising you see.
Visit our Privacy Policy to learn more. By continuing to use the site, you agree to this use of cookies and data.
  • In United Kingdom
  • List of Countries
  • For 7 days
  • Water Temperature
  • Weather Map
  • Weather Widgets
  • user-avatar
    Login

    Hourly Weather Bihać

    Today, 29 January, Wednesday

    Time Temperature Precipitation Wind Pressure Humidity
    00:00 +6°C° 0.7 mm 4 mps 703 mmHg 90%
    01:00 +6°C° 0 mm 2 mps 703 mmHg 94%
    02:00 +6°C° 0.4 mm 2 mps 703 mmHg 95%
    03:00 +6°C° 0.4 mm 2 mps 703 mmHg 95%
    04:00 +5°C° 0.4 mm 2 mps 703 mmHg 96%
    05:00 +6°C° 0.2 mm 1 mps 703 mmHg 96%
    06:00 +6°C° 0.2 mm 1 mps 703 mmHg 95%
    07:00 +6°C° 0.2 mm 1 mps 703 mmHg 95%
    08:00 +6°C° 0.1 mm 1 mps 704 mmHg 93%
    09:00 +7°C° 0.1 mm 1 mps 704 mmHg 90%
    10:00 +7°C° 0.1 mm 2 mps 704 mmHg 88%
    11:00 +7°C° 0.2 mm 2 mps 704 mmHg 85%
    12:00 +8°C° 0.2 mm 2 mps 704 mmHg 82%
    13:00 +8°C° 0.2 mm 3 mps 705 mmHg 79%
    14:00 +8°C° 0.3 mm 2 mps 705 mmHg 81%
    15:00 +8°C° 0.3 mm 2 mps 705 mmHg 82%
    16:00 +8°C° 0.3 mm 1 mps 705 mmHg 83%
    17:00 +7°C° 0.1 mm 1 mps 705 mmHg 85%
    18:00 +6°C° 0.1 mm 1 mps 706 mmHg 88%
    19:00 +4°C° 0.1 mm 0 mps 706 mmHg 90%
    20:00 +5°C° 0 mm 1 mps 707 mmHg 90%
    21:00 +5°C° 0 mm 1 mps 707 mmHg 90%
    22:00 +4°C° 0 mm 1 mps 707 mmHg 90%
    23:00 +4°C° 0 mm 1 mps 707 mmHg 89%

    Tomorrow, 30 January, Thursday

    Time Temperature Precipitation Wind Pressure Humidity
    00:00 +4°C° 0 mm 1 mps 707 mmHg 89%
    01:00 +4°C° 0 mm 1 mps 708 mmHg 89%
    02:00 +4°C° 0 mm 1 mps 708 mmHg 89%
    03:00 +2°C° 0 mm 0 mps 708 mmHg 90%
    04:00 +2°C° 0 mm 0 mps 709 mmHg 90%
    05:00 +2°C° 0 mm 0 mps 709 mmHg 89%
    06:00 +3°C° 0 mm 1 mps 710 mmHg 89%
    07:00 +3°C° 0 mm 1 mps 710 mmHg 89%
    08:00 +4°C° 0 mm 1 mps 711 mmHg 84%
    09:00 +6°C° 0 mm 1 mps 711 mmHg 78%
    10:00 +7°C° 0 mm 1 mps 711 mmHg 73%
    11:00 +8°C° 0 mm 1 mps 711 mmHg 72%
    12:00 +7°C° 0 mm 2 mps 711 mmHg 70%
    13:00 +8°C° 0 mm 2 mps 711 mmHg 68%
    14:00 +8°C° 0 mm 2 mps 711 mmHg 72%
    15:00 +7°C° 0 mm 2 mps 710 mmHg 75%
    16:00 +7°C° 0 mm 2 mps 710 mmHg 78%
    17:00 +6°C° 0 mm 2 mps 710 mmHg 82%
    18:00 +5°C° 0 mm 2 mps 710 mmHg 86%
    19:00 +4°C° 0 mm 2 mps 710 mmHg 90%
    20:00 +4°C° 0 mm 2 mps 710 mmHg 91%
    21:00 +4°C° 0 mm 2 mps 710 mmHg 92%
    22:00 +4°C° 0 mm 2 mps 710 mmHg 93%
    23:00 +4°C° 0 mm 2 mps 710 mmHg 94%

    Day after tomorrow, 31 January, Friday

    Time Temperature Precipitation Wind Pressure Humidity
    00:00 +4°C° 0 mm 3 mps 710 mmHg 95%
    01:00 +4°C° 0 mm 3 mps 710 mmHg 95%
    02:00 +4°C° 0.1 mm 3 mps 710 mmHg 95%
    03:00 +4°C° 0.1 mm 3 mps 709 mmHg 95%
    04:00 +4°C° 0.1 mm 3 mps 709 mmHg 94%
    05:00 +5°C° 0.1 mm 3 mps 709 mmHg 95%
    06:00 +5°C° 0.1 mm 3 mps 709 mmHg 96%
    07:00 +5°C° 0.1 mm 3 mps 709 mmHg 96%
    08:00 +5°C° 0.1 mm 3 mps 710 mmHg 95%
    09:00 +7°C° 0.1 mm 3 mps 710 mmHg 95%
    10:00 +7°C° 0.1 mm 3 mps 710 mmHg 94%
    11:00 +8°C° 0 mm 3 mps 710 mmHg 93%
    12:00 +8°C° 0 mm 3 mps 710 mmHg 92%
    13:00 +8°C° 0 mm 2 mps 711 mmHg 92%
    14:00 +8°C° 0 mm 2 mps 710 mmHg 93%
    15:00 +8°C° 0 mm 2 mps 710 mmHg 93%
    16:00 +8°C° 0 mm 2 mps 710 mmHg 94%
    17:00 +7°C° 0 mm 2 mps 710 mmHg 95%
    18:00 +7°C° 0 mm 2 mps 711 mmHg 95%
    19:00 +7°C° 0 mm 2 mps 711 mmHg 96%
    20:00 +7°C° 0 mm 2 mps 711 mmHg 96%
    21:00 +7°C° 0 mm 2 mps 711 mmHg 95%
    22:00 +7°C° 0 mm 2 mps 711 mmHg 95%
    23:00 +7°C° 0 mm 2 mps 711 mmHg 95%

    1 February, Saturday

    Time Temperature Precipitation Wind Pressure Humidity
    00:00 +7°C° 0 mm 2 mps 711 mmHg 94%
    01:00 +7°C° 0 mm 2 mps 711 mmHg 94%
    02:00 +7°C° 0 mm 2 mps 711 mmHg 94%
    03:00 +6°C° 0 mm 2 mps 711 mmHg 95%
    04:00 +6°C° 0 mm 2 mps 710 mmHg 95%
    05:00 +6°C° 0 mm 2 mps 710 mmHg 95%
    06:00 +6°C° 0 mm 2 mps 710 mmHg 95%
    07:00 +6°C° 0 mm 2 mps 710 mmHg 95%
    08:00 +7°C° 0 mm 2 mps 710 mmHg 94%
    09:00 +7°C° 0 mm 2 mps 711 mmHg 93%
    10:00 +8°C° 0 mm 2 mps 711 mmHg 92%
    11:00 +8°C° 0 mm 3 mps 711 mmHg 92%
    12:00 +8°C° 0 mm 3 mps 710 mmHg 91%
    13:00 +8°C° 0 mm 3 mps 710 mmHg 90%
    14:00 +8°C° 0 mm 3 mps 710 mmHg 92%
    15:00 +8°C° 0 mm 3 mps 709 mmHg 93%
    16:00 +8°C° 0 mm 3 mps 709 mmHg 94%
    17:00 +8°C° 0.1 mm 3 mps 709 mmHg 95%
    18:00 +8°C° 0.1 mm 3 mps 709 mmHg 96%
    19:00 +8°C° 0.1 mm 3 mps 709 mmHg 96%
    20:00 +8°C° 0.5 mm 3 mps 708 mmHg 96%
    21:00 +8°C° 0.5 mm 3 mps 708 mmHg 96%
    22:00 +8°C° 0.5 mm 3 mps 708 mmHg 96%
    23:00 +8°C° 2.5 mm 3 mps 707 mmHg 96%

    2 February, Sunday

    Time Temperature Precipitation Wind Pressure Humidity
    00:00 +8°C° 2.5 mm 3 mps 707 mmHg 97%
    01:00 +8°C° 2.5 mm 3 mps 707 mmHg 97%
    02:00 +8°C° 3.4 mm 3 mps 707 mmHg 98%
    03:00 +8°C° 3.4 mm 2 mps 707 mmHg 98%
    04:00 +8°C° 3.4 mm 2 mps 707 mmHg 98%
    05:00 +7°C° 2.1 mm 2 mps 708 mmHg 95%
    06:00 +6°C° 2.1 mm 2 mps 709 mmHg 92%
    07:00 +6°C° 2.1 mm 2 mps 709 mmHg 89%
    08:00 +6°C° 0 mm 2 mps 710 mmHg 84%
    09:00 +7°C° 0 mm 2 mps 711 mmHg 80%
    10:00 +8°C° 0 mm 3 mps 712 mmHg 76%
    11:00 +8°C° 0 mm 2 mps 712 mmHg 69%
    12:00 +9°C° 0 mm 2 mps 713 mmHg 62%
    13:00 +10°C° 0 mm 2 mps 713 mmHg 56%
    14:00 +10°C° 0 mm 2 mps 713 mmHg 59%
    15:00 +9°C° 0 mm 2 mps 713 mmHg 61%
    16:00 +10°C° 0 mm 1 mps 713 mmHg 64%
    17:00 +9°C° 0 mm 1 mps 713 mmHg 66%
    18:00 +7°C° 0 mm 1 mps 713 mmHg 68%
    19:00 +6°C° 0 mm 1 mps 713 mmHg 70%
    20:00 +6°C° 0 mm 1 mps 714 mmHg 69%
    21:00 +6°C° 0 mm 1 mps 714 mmHg 67%
    22:00 +5°C° 0 mm 1 mps 714 mmHg 66%
    23:00 +5°C° 0 mm 1 mps 714 mmHg 64%

    3 February, Monday

    Time Temperature Precipitation Wind Pressure Humidity
    00:00 +5°C° 0 mm 1 mps 714 mmHg 63%
    01:00 +5°C° 0 mm 1 mps 714 mmHg 61%
    02:00 +5°C° 0 mm 1 mps 714 mmHg 61%
    03:00 +5°C° 0 mm 1 mps 714 mmHg 61%
    04:00 +5°C° 0 mm 1 mps 714 mmHg 61%
    05:00 +5°C° 0 mm 1 mps 714 mmHg 60%
    06:00 +5°C° 0 mm 1 mps 714 mmHg 60%
    07:00 +5°C° 0 mm 1 mps 714 mmHg 60%
    08:00 +6°C° 0 mm 1 mps 714 mmHg 59%
    09:00 +7°C° 0 mm 0 mps 715 mmHg 58%
    10:00 +8°C° 0 mm 0 mps 715 mmHg 57%
    11:00 +10°C° 0 mm 1 mps 715 mmHg 56%
    12:00 +11°C° 0 mm 1 mps 715 mmHg 55%
    13:00 +12°C° 0 mm 1 mps 715 mmHg 54%
    14:00 +11°C° 0 mm 1 mps 715 mmHg 59%
    15:00 +10°C° 0 mm 1 mps 714 mmHg 65%
    16:00 +10°C° 0 mm 1 mps 714 mmHg 70%
    17:00 +9°C° 0 mm 1 mps 714 mmHg 71%
    18:00 +8°C° 0 mm 1 mps 714 mmHg 71%
    19:00 +7°C° 0 mm 1 mps 714 mmHg 72%
    20:00 +7°C° 0 mm 1 mps 714 mmHg 70%
    21:00 +7°C° 0 mm 1 mps 714 mmHg 69%
    22:00 +6°C° 0 mm 1 mps 714 mmHg 67%
    23:00 +6°C° 0 mm 1 mps 714 mmHg 67%
    Show more